Location: L�Ave Maria
(50.7161°N, 1.5911°E)
Time: 23:51:06
(UTC+00:00)

Cosmos 1346 Rocket - Pass Details

Date: 10 July 2020
Orbit: 533 x 546 km, 81.2° (Epoch: 03 August)

Event Time Altitude Azimuth Distance (km) Brightness Sun altitude
Exits shadow 23:25:29 36° 189° (S) 865 3.3 -16.8°
Maximum altitude 23:27:03 88° 103° (ESE) 542 2.7 -16.9°
Drops below altitude 10° 23:31:01 10° 13° (NNE) 1,800 6.6 -16.9°
Sets 23:33:11 0° 13° (NNE) 2,698 7.7 -17.0°
